Tracking 19219 objects as of 22-Jul-2018
HD Live streaming from Space Station
objects crossing your sky now

FENGYUN 1C DEB

Track FENGYUN 1C DEB now!
10-day predictions


NORAD ID: 31062
Int'l Code: 1999-025BFG
Perigee: 862.8 km
Apogee: 1,118.8 km
Inclination: 99.3 °
Period: 104.8 minutes
Semi major axis: 7361 km
RCS: 0.0043 m2 (small)
Launch date: May 10, 1999
Source: People's Republic of China (PRC)
Launch site: Taiyaun Space Center, China (TSC)

Note: This is SATELLITE DEBRIS
aabbcc
Your satellite tracking list
Your tracking list is empty




NASA's NSSDC Master Catalog

Two Line Element Set (TLE):
1 31062U 99025BFG 18200.22433830 -.00000002 +00000-0 +39852-4 0  9997
2 31062 099.2679 102.9671 0173869 254.0297 263.0429 13.74450775570848
Source of the keplerian elements: AFSPC